Regional Weather Roundup
Issued by NWS

Home | Current Version | Previous Version | Graphics & Text | Print | Product List | Glossary Off
Versions: 1 2 3 4 5 6 7 8 9 10 11 12 13 14 15 16 17 18 19 20 21 22 23 24 25 26 27 28 29 30 31 32 33 34 35 36 37 38 39 40 41 42 43 44 45 46 47 48 49 50

702
ASUS43 KMKX 251800
RWRWI

WISCONSIN REGIONAL WEATHER ROUNDUP
NATIONAL WEATHER SERVICE MILWAUKEE/SULLIVAN WI
100 PM CDT THU AUG 25 2016

NOTE: "FAIR" INDICATES FEW OR NO CLOUDS BELOW 12,000 FEET WITH NO
SIGNIFICANT WEATHER AND/OR OBSTRUCTIONS TO VISIBILITY.

WIZ001-002-006>008-014>016-023>028-251900-
NORTHWEST WISCONSIN

CITY           SKY/WX    TMP DP  RH WIND       PRES   REMARKS
SUPERIOR ARPT  PTSUNNY   72  56  56 W18       29.95R
ASHLAND        MOSUNNY   76  55  48 W16       29.93F
6HR MIN TEMP:  56; 6HR MAX TEMP:  76;

HAYWARD        SUNNY     71  52  50 SW16G26   29.99S
6HR MIN TEMP:  54; 6HR MAX TEMP:  73;

SIREN          MOSUNNY   71  53  52 W13G21    30.01R
CUMBERLAND     MOSUNNY   70  54  56 W15       30.02S
RICE LAKE      MOSUNNY   72  56  57 SW15      30.03S
CHETEK         NOT AVBL
LADYSMITH      MOSUNNY   74  58  55 W16G24    30.02S
EAU CLAIRE     NOT AVBL
MENOMONIE      PTSUNNY   78  56  48 SW15G21   30.03S
6HR MIN TEMP:  62; 6HR MAX TEMP:  78;

NEW RICHMOND   CLOUDY    71  55  55 W14G22    30.04S
OSCEOLA        MOSUNNY   70  53  53 W16G23    30.07R
$$

WIZ003>005-009-010-017-018-251900-
NORTH CENTRAL WISCONSIN

CITY           SKY/WX    TMP DP  RH WIND       PRES   REMARKS
MANITOWISH WTR NOT AVBL
ARBOR VITAE    MOSUNNY   76  57  50 SW14G24   29.99S
WOODRUFF       MOSUNNY   76  57  50 SW14G24   29.99S
RHINELANDER    MOSUNNY   77  56  48 W15G23    30.01F
6HR MIN TEMP:  55; 6HR MAX TEMP:  77;

EAGLE RIVER    SUNNY     73  50  43 W16G23    29.99S
LAND O LAKES   MOSUNNY   74  51  44 W10       29.99F
PHILLIPS       CLOUDY    73  58  59 SW15G23   29.99S
6HR MIN TEMP:  56; 6HR MAX TEMP:  73;

TOMAHAWK       SUNNY     74  55  51 W7        30.02S
MEDFORD        SUNNY     73  59  62 SW13      30.03S
MERRILL        SUNNY     75  58  54 W14G20    30.02F
$$

WIZ029-030-035-036-043>047-251900-
CENTRAL WISCONSIN

CITY           SKY/WX    TMP DP  RH WIND       PRES   REMARKS
WAUSAU         MOSUNNY   76  57  51 W10       30.01F
6HR MIN TEMP:  59; 6HR MAX TEMP:  77;

MOSINEE        SUNNY     75  59  57 SW15G21   30.04F
MARSHFIELD     SUNNY     77  58  51 W12       30.03F
6HR MIN TEMP:  60; 6HR MAX TEMP:  77;

STEVENS POINT  SUNNY     74  56  54 W8        30.04S
WAUPACA        SUNNY     79  55  43 W7        30.03S
WAUTOMA        SUNNY     77  59  53 W8        30.04F
6HR MIN TEMP:  63; 6HR MAX TEMP:  77;

WISC RAPIDS    SUNNY     78  60  53 W9        30.04F
6HR MIN TEMP:  61; 6HR MAX TEMP:  78;

CAMP DOUGLAS   NOT AVBL
$$

WIZ011>013-019>022-031-037>040-048>050-251900-
NORTHEAST WISCONSIN

CITY           SKY/WX    TMP DP  RH WIND       PRES   REMARKS
ANTIGO         SUNNY     74  56  53 W13G20    30.02F
SHAWANO        SUNNY     77  61  57 SW7       30.01S
OCONTO         NOT AVBL
STURGEON BAY   CLOUDY    75  59  57 W10       29.99S
6HR MIN TEMP:  66; 6HR MAX TEMP:  75;

GREEN BAY      CLOUDY    75  61  61 W10       30.00F
6HR MIN TEMP:  64; 6HR MAX TEMP:  76;

MANITOWOC      NOT AVBL
APPLETON       PTSUNNY   75  54  46 W8        30.01S
CLINTONVILLE   SUNNY     77  55  47 W10G16    30.01S
OSHKOSH        CLOUDY    76  57  51 VRB3      30.02S
6HR MIN TEMP:  64; 6HR MAX TEMP:  76;

$$

WIZ032>034-041-042-053>061-251900-
SOUTHWEST WISCONSIN

CITY           SKY/WX    TMP DP  RH WIND       PRES   REMARKS
LA CROSSE      PTSUNNY   79  60  52 W10       30.05S HX  80
6HR MIN TEMP:  65; 6HR MAX TEMP:  80;

SPARTA         MOSUNNY   76  59  54 W9        30.06F
VIROQUA        PTSUNNY   75  60  58 W6        30.09R
6HR MIN TEMP:  60; 6HR MAX TEMP:  75;

BOSCOBEL       CLOUDY    79  60  52 VRB6      30.07S HX  80
6HR MIN TEMP:  65; 6HR MAX TEMP:  79;

PRAIRIE DU CHI CLOUDY    76  56  50 CALM      30.08R
PLATTEVILLE    MOSUNNY   76  60  56 CALM      30.09S
$$

WIZ056-057-062-063-064-067-068-251900-
SOUTH CENTRAL WISCONSIN

CITY           SKY/WX    TMP DP  RH WIND       PRES   REMARKS
REEDSBURG      NOT AVBL
BARABOO/DELLS  CLOUDY    76  56  51 CALM      30.06S
LONE ROCK      NOT AVBL
MINERAL POINT  PTSUNNY   77  55  47 CALM      30.09S
MADISON        CLOUDY    79  57  46 W5        30.05F HX  80
6HR MIN TEMP:  63; 6HR MAX TEMP:  79;

MIDDLETON      CLOUDY    78  59  52 CALM      30.06F
WATERTOWN      CLOUDY    76  61  58 NW6       30.05S
MONROE         CLOUDY    77  57  50 CALM      30.07F
JANESVILLE     PTSUNNY   79  61  53 CALM      30.06S HX  80
$$

WIZ051-052-058>065-066-070>072-251900-
SOUTHEAST WISCONSIN

CITY           SKY/WX    TMP DP  RH WIND       PRES   REMARKS
MILWAUKEE      PTSUNNY   81  58  45 NW6       30.04R HX  81
6HR MIN TEMP:  71; 6HR MAX TEMP:  83; 6HR PCP: TRACE;

WAUKESHA       SUNNY     75  59  57 W8        30.06R
MILWAUKEE/TIMM SUNNY     81  54  39 NW6       30.04S HX  80
RACINE         CLOUDY    79  63  57 NW6       30.05S HX  80
6HR MIN TEMP:  69; 6HR MAX TEMP:  80; 6HR PCP:  0.06;

BURLINGTON     CLOUDY    77  60  55 W5        30.05S
KENOSHA        CLOUDY    79  67  66 NW6       30.04F HX  81
6HR MIN TEMP:  69; 6HR MAX TEMP:  79; 6HR PCP:  0.01;

FOND DU LAC    CLOUDY    77  56  48 NW5       30.03F
6HR MIN TEMP:  64; 6HR MAX TEMP:  77;

SHEBOYGAN      CLOUDY    77  57  50 W9        30.03R
6HR MIN TEMP:  68; 6HR MAX TEMP:  78;

WEST BEND      CLOUDY    75  55  50 N8        30.04S
JUNEAU         CLOUDY    73  57  57 NW5       30.06S
$$

LSZ147-162-251900-
LAKE SUPERIOR

STATION/POSITION TIME  TEMP    WIND        PRES    WAVE
                       AIR SEA DIR/SP/G            HT/PER
                 (UTC) (F)     (DEG/KT/KT) (MB)    (FT/S)
W MID LAKE BUOY  1650   67 68  230/ 17/ 19 1011.7R   3/ 4
DEVILS ISLAND    1700   67     240/ 21/ 25 1012.9R
PORT WING        1700   70     260/ 12/ 19 1013.5S
SAXON HARBOR     1700   74     220/ 10/ 19 1013.5F
$$

LMZ867-665-643>646-251900-
LAKE MICHIGAN

STATION/POSITION TIME  TEMP    WIND        PRES    WAVE
                       AIR SEA DIR/SP/G            HT/PER
                 (UTC) (F)     (DEG/KT/KT) (MB)    (FT/S)
CHAMBERS ISLAND  1700   74     190/  3/  7 1014.6F
S GREEN BAY BUOY 1700   73 73  250/  6/  8 1015.1R
N MID LAKE BUOY  1650   68 70  270/ 10/ 12 1013.7S   2/ 6
NORTHPORT PIER   1700   72     290/  4/  9 1014.6S
SISTER BAY       1607   72     330/ 11/ 12   N/A
ALGOMA LAKESHORE 1700           10/  7/ 10   N/A
KEWAUNEE LAKESHO 1700   75     330/  7/ 10 1015.2R
SHEBOYGAN LAKESH 1700   74     340/  4/  7 1015.7R
PORT WASHINGTON  1700   79     290/  6/ 11 1017.3R
ATWATER BUOY     1700   66 48  140/  2/  2   N/A
MILWAUKEE LAKESH 1710   69     150/  5/  8   N/A
S MID LAKE BUOY  1650   71 74  330/ 10/ 12 1016.0R   1/ 3
KENOSHA   LAKESH 1700   75      90/  5/  5 1016.9R
$$

TC  - TEMPERATURE IN CELSIUS
VSB - VISIBILITY IN STATUTE MILES
WCI - WIND CHILL INDEX
HX  - HEAT INDEX





USA.gov is the U.S. government's official web portal to all federal, state and local government web resources and services.